Content
SEND FEEDBACK

Daily
Averages
Monthly
Summary
United States of America

EAGLE, COLORADO


Home > North America > United States > Colorado
Elevation: 6539 feet     Latitude: 39 38N     Longitude: 106 54W

WEATHER
 
SELECT A DAY
Number of Records: 376,849;   Date Range: 1/1/95 - 7/26/14
 
SHARE

PRINT THIS DATA

[ ← Previous Day ]
WEATHER ALMANAC - JANUARY 23, 2013
[ Next Day → ]
[ °C ]   °F
Weather ElementAverageHighLow
Temperature10.9 °F33.8 °F (3:50 pm)-0.4 °F (6:35 am)
Dewpoint4.3 °F15.8 °F (5:56 pm)-5.8 °F (6:55 am)
Humidity77.1 %92 % (1:35 am)32 % (3:50 pm)
Barometer30.39 in30.46 in (6:15 am)30.29 in (4:51 pm)
Wind Speed1.4 mph6.9 mph (3:15 am)
Weather ElementAverage
Visibility10 mi
Wind DirectionNNE (34.9 °)

Weather ElementTotal
Precipitation---
Heating Degree Days48.3 (Base 65)
Averaged from 37 records on January 23, 2013
WEATHER CONDITIONS BREAKOUT
WIND DIRECTION BREAKOUT
WEATHER BY HOUR - JANUARY 23, 2013
[ °C ]   °F
Local TimeTemperatureDewpointHumidityBarometerVisibilityWind DirectionWind SpeedGust SpeedPrecipitationEventsConditions
12:55 AM6.8 °F1.4 °F79 %30.41 in10.0 miCalmClear
1:15 AM6.8 °F1.4 °F79 %30.42 in10.0 miESE (120°)3.5 mphClear
1:35 AM3.2 °F1.4 °F92 %30.42 in10.0 miEast (90°)3.5 mphClear
1:55 AM3.2 °F-0.4 °F85 %30.43 in10.0 miCalmClear
2:15 AM3.2 °F-0.4 °F85 %30.43 in10.0 miCalmClear
2:55 AM3.2 °F-0.4 °F85 %30.44 in10.0 miESE (120°)3.5 mphClear
3:15 AM1.4 °F-0.4 °F92 %30.44 in10.0 miEast (90°)6.9 mphClear
3:35 AM1.4 °F-2.2 °F85 %30.44 in10.0 miESE (110°)6.9 mphClear
4:15 AM1.4 °F-0.4 °F92 %30.44 in10.0 miCalmClear
4:35 AM1.4 °F-2.2 °F85 %30.45 in10.0 miCalmClear
4:55 AM1.4 °F-2.2 °F85 %30.44 in10.0 miCalmClear
5:15 AM1.4 °F-0.4 °F92 %30.44 in10.0 miCalmClear
5:35 AM1.4 °F-2.2 °F85 %30.44 in10.0 miEast (80°)3.5 mphClear
5:55 AM1.4 °F-2.2 °F85 %30.45 in10.0 miESE (120°)3.5 mphClear
6:15 AM1.4 °F-2.2 °F85 %30.46 in10.0 miEast (80°)3.5 mphClear
6:35 AM-0.4 °F-2.2 °F92 %30.46 in10.0 miEast (100°)4.6 mphClear
6:50 AM-0.4 °F-4.0 °F85 %30.45 in10.0 miCalmPartly Cloudy
6:55 AM-0.4 °F-5.8 °F78 %30.45 in10.0 miCalmClear
7:50 AM-0.4 °F-4.0 °F85 %30.46 in10.0 miCalmScattered Clouds
8:50 AM1.4 °F-2.2 °F85 %30.46 in10.0 miCalmScattered Clouds
9:50 AM8.6 °F3.2 °F79 %30.45 in10.0 miCalmScattered Clouds
10:50 AM12.2 °F8.6 °F85 %30.42 in10.0 miCalmScattered Clouds
11:50 AM17.6 °F10.4 °F73 %30.39 in10.0 miCalmScattered Clouds
12:50 PM26.6 °F12.2 °F55 %30.35 in10.0 miCalmScattered Clouds
1:50 PM28.4 °F12.2 °F51 %30.33 in10.0 miCalmScattered Clouds
2:50 PM30.2 °F6.8 °F37 %30.31 in10.0 miCalmScattered Clouds
3:50 PM33.8 °F6.8 °F32 %30.30 in10.0 miCalmMostly Cloudy
4:51 PM30.2 °F12.2 °F47 %30.29 in10.0 miCalmMostly Cloudy
5:56 PM26.6 °F15.8 °F64 %30.31 in10.0 miSE (140°)3.5 mphMostly Cloudy
6:59 PM23.0 °F15.8 °F74 %30.31 in10.0 miCalmScattered Clouds
7:58 PM23.0 °F15.8 °F74 %30.31 in10.0 miCalmScattered Clouds
8:58 PM19.4 °F12.2 °F74 %30.31 in10.0 miCalmScattered Clouds
9:53 PM19.4 °F14.0 °F80 %30.31 in10.0 miEast (80°)6.9 mphScattered Clouds
10:50 PM17.6 °F10.4 °F73 %30.32 in10.0 miCalmPartly Cloudy
11:15 PM15.8 °F10.4 °F79 %30.33 in10.0 miCalmClear
11:35 PM15.8 °F10.4 °F79 %30.33 in10.0 miSSE (160°)3.5 mphClear
11:55 PM15.8 °F10.4 °F79 %30.32 in10.0 miCalmClear
Hourly data recorded from KEGE, located miles away from Eagle, Colorado







STORIES FROM OUR PARTNERS